contact:dominique.lefevre@mio.osupytheas.fr, maurice.libes@osupytheas.fr, didier.mallarino@osupytheas.fr
Project:EMSO http://www.emso-fr.org/EMSO-France
Depth: 2436.0 m
Title:EMSO Ligure Ouest : Data MII capteur AQUADOPP
Date,Latitude,Longitude,X_East,Y_North,Z_Up,Amplitude_X,Amplitude_Y,Amplitude_Z,Batterie,SoundSpeed,Heading,Pitch,Roll,Pressure,TIS,Speed,Direction
, degrees North, degrees East, m.s-1, m.s-1,m.s-1, 1, 1, 1, Volt, m.s-1, degree, degree, degree, dbar, degree_C, m.s-1, degree
2023-07-20T00:04:03,42.805,6.029,-0.033,-0.004,-0.064,103.0,102.0,101.0,13.4,1505.2,349.6,-0.8,1.8,2471.487,13.29,0.033,263.1
2023-07-20T00:07:03,42.805,6.029,-0.014,0.003,-0.047,102.0,102.0,101.0,13.3,1505.2,325.0,-0.8,1.9,2471.472,13.29,0.014,282.1
2023-07-20T00:10:03,42.805,6.029,-0.02,-0.001,-0.051,101.0,102.0,101.0,13.3,1505.2,350.3,-0.8,1.8,2471.462,13.29,0.02,267.1
2023-07-20T00:13:03,42.805,6.029,-0.017,-0.015,-0.068,103.0,102.0,100.0,13.4,1505.2,344.9,-0.8,1.8,2471.454,13.29,0.022,228.6
2023-07-20T00:16:03,42.805,6.029,-0.025,0.008,-0.045,105.0,102.0,101.0,13.4,1505.2,342.9,-0.8,1.8,2471.412,13.29,0.026,287.7
2023-07-20T00:19:03,42.805,6.029,-0.004,-0.003,-0.027,102.0,103.0,101.0,13.3,1505.2,348.0,-0.8,1.8,2471.402,13.29,0.005,233.1
2023-07-20T00:22:03,42.805,6.029,-0.024,-0.001,-0.049,103.0,101.0,101.0,13.4,1505.2,330.7,-0.8,1.8,2471.426,13.29,0.024,267.6
2023-07-20T00:25:03,42.805,6.029,0.001,0.011,-0.005,101.0,101.0,102.0,13.3,1505.2,334.6,-0.7,1.8,2471.411,13.29,0.011,5.2
2023-07-20T00:28:03,42.805,6.029,-0.024,0.017,-0.014,102.0,102.0,100.0,13.3,1505.2,340.9,-0.8,1.8,2471.404,13.29,0.029,305.3
2023-07-20T00:31:03,42.805,6.029,-0.012,0.002,-0.024,102.0,102.0,100.0,13.4,1505.2,321.9,-0.8,1.8,2471.416,13.29,0.012,279.5
2023-07-20T00:34:03,42.805,6.029,-0.014,0.0,-0.042,102.0,101.0,101.0,13.4,1505.2,331.2,-0.8,1.8,2471.381,13.29,0.014,270.0
2023-07-20T00:37:03,42.805,6.029,0.003,-0.003,0.015,100.0,102.0,101.0,13.4,1505.2,327.3,-0.7,1.9,2471.411,13.29,0.004,135.0
2023-07-20T00:40:03,42.805,6.029,-0.034,0.002,-0.031,100.0,102.0,102.0,13.3,1505.2,332.0,-0.8,1.8,2471.442,13.29,0.034,273.4
2023-07-20T00:43:03,42.805,6.029,-0.048,0.007,-0.031,102.0,101.0,101.0,13.4,1505.2,330.9,-0.8,1.8,2471.387,13.29,0.048,278.3
2023-07-20T00:46:03,42.805,6.029,-0.019,0.014,0.005,105.0,102.0,100.0,13.4,1505.2,326.8,-0.8,1.8,2471.415,13.29,0.023,306.4
2023-07-20T00:49:03,42.805,6.029,-0.024,0.016,-0.026,102.0,102.0,101.0,13.4,1505.2,346.2,-0.8,1.8,2471.388,13.29,0.028,303.7
2023-07-20T00:52:03,42.805,6.029,0.002,0.018,-0.021,102.0,101.0,103.0,13.4,1505.2,343.7,-0.7,1.8,2471.408,13.29,0.018,6.3
2023-07-20T00:55:03,42.805,6.029,-0.015,0.03,-0.002,102.0,103.0,101.0,13.3,1505.2,347.2,-0.8,1.8,2471.365,13.29,0.033,333.4
2023-07-20T00:58:03,42.805,6.029,0.014,-0.008,-0.02,103.0,101.0,101.0,13.4,1505.2,345.3,-0.8,1.8,2471.375,13.29,0.016,119.7
2023-07-20T01:04:03,42.805,6.029,0.001,0.007,-0.072,103.0,103.0,103.0,13.4,1505.2,346.5,-0.7,1.8,2471.413,13.29,0.007,8.1
2023-07-20T01:07:03,42.805,6.029,-0.04,0.007,-0.068,102.0,102.0,101.0,13.3,1505.2,336.5,-0.8,1.8,2471.425,13.29,0.04,279.9
2023-07-20T01:10:03,42.805,6.029,-0.05,0.014,-0.058,102.0,101.0,101.0,13.3,1505.2,331.8,-0.8,1.8,2471.398,13.29,0.051,285.6
2023-07-20T01:13:03,42.805,6.029,-0.012,-0.002,-0.037,102.0,102.0,101.0,13.3,1505.2,329.8,-0.8,1.8,2471.431,13.29,0.012,260.5
2023-07-20T01:16:03,42.805,6.029,-0.01,-0.004,-0.009,103.0,101.0,101.0,13.3,1505.2,331.8,-0.7,1.8,2471.4,13.29,0.01,248.2
2023-07-20T01:19:03,42.805,6.029,-0.025,0.018,0.0,102.0,102.0,102.0,13.4,1505.2,334.9,-0.7,1.8,2471.42,13.29,0.03,305.8
2023-07-20T01:22:02,42.805,6.029,0.023,0.008,-0.024,103.0,100.0,101.0,13.4,1505.2,344.0,-0.8,1.8,2471.343,13.29,0.024,70.8
2023-07-20T01:25:03,42.805,6.029,0.0,-0.004,-0.042,102.0,102.0,101.0,13.4,1505.2,334.6,-0.8,1.8,2471.408,13.29,0.004,180.0
2023-07-20T01:28:03,42.805,6.029,-0.003,-0.016,-0.021,102.0,102.0,101.0,13.4,1505.2,345.6,-0.8,1.8,2471.45,13.29,0.016,190.6
2023-07-20T01:31:03,42.805,6.029,0.051,-0.053,-0.066,102.0,102.0,100.0,13.4,1505.2,330.5,-0.8,1.8,2471.372,13.29,0.073,136.1
2023-07-20T01:34:03,42.805,6.029,-0.02,0.01,0.0,102.0,102.0,101.0,13.3,1505.2,340.2,-0.7,1.8,2471.353,13.29,0.022,296.6
2023-07-20T01:37:03,42.805,6.029,-0.006,0.002,-0.023,102.0,102.0,102.0,13.3,1505.2,324.0,-0.8,1.8,2471.396,13.29,0.006,288.4
2023-07-20T01:40:03,42.805,6.029,0.004,-0.01,-0.049,102.0,102.0,101.0,13.3,1505.2,328.8,-0.8,1.8,2471.416,13.29,0.01,158.2
2023-07-20T01:43:03,42.805,6.029,0.004,0.014,-0.013,102.0,102.0,101.0,13.4,1505.2,350.1,-0.8,1.8,2471.375,13.29,0.014,15.9
2023-07-20T01:46:03,42.805,6.029,-0.013,0.001,-0.006,102.0,101.0,102.0,13.4,1505.2,326.3,-0.7,1.8,2471.362,13.29,0.013,274.4
2023-07-20T01:49:03,42.805,6.029,-0.005,-0.005,-0.036,103.0,102.0,102.0,13.4,1505.2,346.5,-0.8,1.8,2471.377,13.29,0.007,225.0
2023-07-20T01:52:03,42.805,6.029,-0.026,-0.005,-0.045,102.0,102.0,101.0,13.4,1505.2,348.9,-0.8,1.8,2471.374,13.29,0.026,259.1
2023-07-20T01:55:03,42.805,6.029,-0.003,0.0,-0.037,102.0,101.0,101.0,13.4,1505.2,324.2,-0.8,1.8,2471.358,13.29,0.003,270.0
2023-07-20T01:58:03,42.805,6.029,-0.005,0.009,-0.01,102.0,104.0,100.0,13.4,1505.2,349.5,-0.8,1.8,2471.323,13.29,0.01,330.9
2023-07-20T02:04:03,42.805,6.029,0.004,0.0,-0.015,101.0,103.0,102.0,13.4,1505.2,336.5,-0.8,1.8,2471.4,13.29,0.004,90.0
2023-07-20T02:07:03,42.805,6.029,-0.016,0.013,-0.015,103.0,101.0,101.0,13.4,1505.2,324.2,-0.8,1.8,2471.352,13.29,0.02,309.1
2023-07-20T02:10:03,42.805,6.029,-0.022,-0.031,-0.052,103.0,103.0,101.0,13.3,1505.2,343.6,-0.7,1.8,2471.377,13.29,0.038,215.4
2023-07-20T02:13:03,42.805,6.029,-0.035,0.004,-0.062,102.0,102.0,102.0,13.3,1505.2,348.9,-0.7,1.8,2471.363,13.29,0.035,276.5
2023-07-20T02:16:03,42.805,6.029,-0.007,-0.009,-0.036,102.0,101.0,101.0,13.3,1505.2,334.7,-0.8,1.8,2471.369,13.29,0.011,217.9
2023-07-20T02:19:03,42.805,6.029,-0.028,0.0,-0.045,102.0,102.0,101.0,13.4,1505.2,330.1,-0.8,1.8,2471.349,13.29,0.028,270.0
2023-07-20T02:22:03,42.805,6.029,-0.025,-0.019,-0.052,102.0,103.0,100.0,13.4,1505.2,330.8,-0.8,1.8,2471.392,13.29,0.031,232.8
2023-07-20T02:25:03,42.805,6.029,-0.056,0.023,-0.03,101.0,102.0,102.0,13.4,1505.2,331.2,-0.8,1.8,2471.382,13.29,0.06,292.3
2023-07-20T02:28:03,42.805,6.029,-0.001,0.006,-0.014,101.0,101.0,102.0,13.4,1505.2,330.8,-0.8,1.8,2471.378,13.29,0.006,350.5
2023-07-20T02:31:03,42.805,6.029,-0.01,0.005,-0.025,101.0,101.0,102.0,13.4,1505.2,333.8,-0.8,1.8,2471.38,13.29,0.011,296.6
2023-07-20T02:34:03,42.805,6.029,-0.024,0.024,-0.05,102.0,101.0,100.0,13.4,1505.2,347.0,-0.7,1.8,2471.354,13.29,0.033,315.0
2023-07-20T02:37:03,42.805,6.029,0.005,0.02,0.016,102.0,101.0,102.0,13.4,1505.2,351.7,-0.7,1.8,2471.323,13.29,0.02,14.0
2023-07-20T02:40:03,42.805,6.029,0.002,-0.001,-0.01,101.0,103.0,101.0,13.4,1505.2,325.2,-0.8,1.8,2471.339,13.29,0.002,116.6
2023-07-20T02:43:03,42.805,6.029,-0.024,-0.002,-0.037,103.0,102.0,100.0,13.4,1505.2,353.1,-0.8,1.8,2471.332,13.29,0.024,265.2
2023-07-20T02:46:03,42.805,6.029,-0.006,0.003,-0.027,102.0,100.0,101.0,13.4,1505.2,342.3,-0.8,1.8,2471.364,13.29,0.006,296.6
2023-07-20T02:49:03,42.805,6.029,-0.016,-0.002,-0.063,103.0,100.0,100.0,13.4,1505.2,351.7,-0.8,1.8,2471.326,13.29,0.016,262.9
2023-07-20T02:52:03,42.805,6.029,-0.015,-0.008,-0.022,102.0,102.0,102.0,13.3,1505.2,321.0,-0.7,1.8,2471.379,13.29,0.017,241.9
2023-07-20T02:55:03,42.805,6.029,-0.018,0.011,-0.019,102.0,102.0,101.0,13.3,1505.2,335.6,-0.7,1.8,2471.365,13.29,0.021,301.4
2023-07-20T02:58:03,42.805,6.029,-0.018,0.0,-0.039,104.0,102.0,101.0,13.3,1505.2,325.0,-0.8,1.8,2471.347,13.29,0.018,270.0
2023-07-20T04:04:02,42.805,6.029,-0.026,0.003,-0.029,103.0,100.0,101.0,13.3,1505.2,334.5,-0.8,1.8,2471.816,13.28,0.026,276.6
2023-07-20T04:07:03,42.805,6.029,-0.016,0.002,-0.02,101.0,101.0,101.0,13.4,1505.2,343.4,-0.8,1.8,2471.767,13.28,0.016,277.1
2023-07-20T04:10:03,42.805,6.029,-0.01,-0.012,-0.048,103.0,101.0,100.0,13.3,1505.2,354.2,-0.8,1.8,2471.663,13.28,0.015,219.8
2023-07-20T04:13:03,42.805,6.029,-0.005,0.019,-0.015,104.0,102.0,100.0,13.3,1505.2,341.2,-0.8,1.8,2471.571,13.28,0.019,345.3
2023-07-20T04:16:03,42.805,6.029,-0.009,0.013,-0.012,102.0,102.0,101.0,13.3,1505.2,338.9,-0.8,1.8,2471.499,13.29,0.015,325.3
2023-07-20T04:19:03,42.805,6.029,-0.023,0.015,-0.015,102.0,102.0,101.0,13.4,1505.2,351.5,-0.7,1.8,2471.492,13.29,0.027,303.1
2023-07-20T04:22:03,42.805,6.029,-0.009,0.016,0.0,101.0,103.0,101.0,13.3,1505.2,337.7,-0.8,1.8,2471.45,13.29,0.018,330.6
2023-07-20T04:25:03,42.805,6.029,-0.039,-0.005,-0.023,103.0,102.0,101.0,13.4,1505.2,329.2,-0.8,1.8,2471.411,13.29,0.039,262.7
2023-07-20T04:28:03,42.805,6.029,0.0,-0.007,0.004,103.0,101.0,102.0,13.4,1505.2,342.2,-0.7,1.8,2471.419,13.29,0.007,180.0
2023-07-20T04:31:03,42.805,6.029,-0.019,0.0,-0.046,102.0,101.0,101.0,13.3,1505.2,338.2,-0.8,1.8,2471.343,13.29,0.019,270.0
2023-07-20T04:34:03,42.805,6.029,-0.023,0.001,-0.02,102.0,102.0,101.0,13.4,1505.2,333.8,-0.7,1.8,2471.358,13.29,0.023,272.5
2023-07-20T04:37:03,42.805,6.029,-0.011,0.006,-0.056,103.0,100.0,102.0,13.4,1505.2,350.1,-0.8,1.8,2471.357,13.29,0.012,298.6
2023-07-20T04:40:03,42.805,6.029,-0.026,0.001,-0.033,102.0,102.0,101.0,13.3,1505.2,331.3,-0.8,1.8,2471.341,13.29,0.026,272.2
2023-07-20T04:43:03,42.805,6.029,-0.03,0.032,-0.036,103.0,102.0,102.0,13.3,1505.2,349.3,-0.8,1.8,2471.289,13.29,0.043,316.9
2023-07-20T04:46:03,42.805,6.029,-0.002,-0.006,-0.056,102.0,101.0,101.0,13.4,1505.2,329.2,-0.8,1.8,2471.366,13.29,0.006,198.4
2023-07-20T04:49:03,42.805,6.029,-0.024,0.001,-0.032,103.0,102.0,102.0,13.4,1505.2,337.2,-0.8,1.8,2471.306,13.29,0.024,272.4
2023-07-20T04:52:03,42.805,6.029,-0.005,0.004,-0.034,101.0,104.0,102.0,13.3,1505.2,331.7,-0.7,1.8,2471.333,13.29,0.006,308.7
2023-07-20T04:55:03,42.805,6.029,0.005,0.007,-0.012,101.0,102.0,101.0,13.4,1505.2,328.3,-0.8,1.8,2471.338,13.29,0.008,35.5
2023-07-20T04:58:03,42.805,6.029,0.003,0.008,-0.022,103.0,101.0,101.0,13.4,1505.2,334.5,-0.8,1.8,2471.307,13.29,0.008,20.6
2023-07-20T05:04:03,42.805,6.029,-0.01,-0.003,-0.041,102.0,103.0,101.0,13.3,1505.2,329.5,-0.8,1.8,2471.372,13.29,0.01,253.3
2023-07-20T05:07:03,42.805,6.029,-0.018,0.033,-0.045,102.0,103.0,101.0,13.4,1505.2,350.7,-0.8,1.8,2471.392,13.29,0.037,331.4
2023-07-20T05:10:03,42.805,6.029,-0.023,-0.008,-0.055,101.0,102.0,101.0,13.3,1505.2,324.7,-0.8,1.8,2471.384,13.29,0.024,250.8
2023-07-20T05:13:03,42.805,6.029,-0.017,0.012,-0.016,102.0,102.0,101.0,13.4,1505.2,332.5,-0.7,1.8,2471.359,13.29,0.02,305.2
2023-07-20T05:16:03,42.805,6.029,-0.006,-0.001,-0.014,102.0,102.0,101.0,13.4,1505.2,329.9,-0.8,1.8,2471.366,13.29,0.006,260.5
2023-07-20T05:19:03,42.805,6.029,-0.015,-0.002,-0.015,103.0,101.0,101.0,13.4,1505.2,331.2,-0.8,1.8,2471.325,13.29,0.015,262.4
2023-07-20T05:22:03,42.805,6.029,-0.005,0.003,-0.036,102.0,102.0,100.0,13.3,1505.2,353.4,-0.8,1.8,2471.369,13.29,0.005,301.0
2023-07-20T05:25:03,42.805,6.029,-0.02,0.017,-0.023,102.0,100.0,101.0,13.4,1505.2,327.4,-0.8,1.8,2471.333,13.29,0.026,310.4
2023-07-20T05:28:03,42.805,6.029,-0.011,-0.007,-0.057,101.0,101.0,102.0,13.4,1505.2,335.4,-0.8,1.8,2471.342,13.29,0.013,237.5
2023-07-20T05:31:03,42.805,6.029,-0.036,0.0,-0.046,101.0,104.0,101.0,13.3,1505.2,322.9,-0.7,1.8,2471.395,13.29,0.036,270.0
2023-07-20T05:34:03,42.805,6.029,0.0,0.015,-0.023,103.0,100.0,101.0,13.4,1505.2,343.8,-0.8,1.8,2471.321,13.29,0.015,0.0
2023-07-20T05:37:03,42.805,6.029,-0.01,0.016,-0.054,102.0,100.0,100.0,13.3,1505.2,343.0,-0.8,1.8,2471.323,13.29,0.018,328.0
2023-07-20T05:40:03,42.805,6.029,0.016,-0.005,-0.016,102.0,103.0,101.0,13.4,1505.2,325.3,-0.7,1.8,2471.366,13.29,0.016,107.4
2023-07-20T05:43:03,42.805,6.029,0.014,0.022,-0.006,102.0,102.0,101.0,13.3,1505.2,351.4,-0.8,1.8,2471.358,13.29,0.026,32.5
2023-07-20T05:46:03,42.805,6.029,-0.017,0.002,-0.04,102.0,101.0,101.0,13.4,1505.2,332.1,-0.8,1.8,2471.333,13.29,0.017,276.7
2023-07-20T05:49:03,42.805,6.029,-0.02,0.014,-0.014,102.0,102.0,101.0,13.4,1505.2,321.0,-0.7,1.8,2471.361,13.29,0.024,305.0
2023-07-20T05:52:03,42.805,6.029,-0.027,0.028,-0.03,102.0,102.0,101.0,13.4,1505.2,346.2,-0.8,1.8,2471.378,13.29,0.038,316.0
2023-07-20T05:55:03,42.805,6.029,0.0,0.018,0.011,102.0,101.0,102.0,13.3,1505.2,334.3,-0.8,1.8,2471.372,13.29,0.018,0.0
2023-07-20T05:58:03,42.805,6.029,-0.002,-0.018,-0.046,103.0,102.0,100.0,13.4,1505.2,326.0,-0.8,1.8,2471.393,13.29,0.018,186.3
2023-07-20T06:04:03,42.805,6.029,0.001,0.006,-0.036,103.0,102.0,101.0,13.4,1505.2,342.8,-0.8,1.8,2471.399,13.29,0.006,9.5
2023-07-20T06:07:03,42.805,6.029,-0.029,-0.008,-0.036,102.0,103.0,106.0,13.4,1505.2,329.8,-0.8,1.8,2471.425,13.29,0.03,254.6
2023-07-20T06:10:03,42.805,6.029,-0.016,0.009,-0.034,102.0,102.0,101.0,13.4,1505.2,335.9,-0.8,1.8,2471.365,13.29,0.018,299.4
2023-07-20T06:13:03,42.805,6.029,-0.027,0.003,-0.029,102.0,101.0,101.0,13.4,1505.2,340.2,-0.8,1.8,2471.404,13.29,0.027,276.3
2023-07-20T06:16:03,42.805,6.029,-0.018,0.018,-0.019,103.0,102.0,102.0,13.4,1505.2,332.1,-0.7,1.8,2471.374,13.29,0.025,315.0
2023-07-20T06:19:03,42.805,6.029,-0.005,0.01,0.012,103.0,101.0,101.0,13.4,1505.2,349.9,-0.8,1.8,2471.39,13.29,0.011,333.4
2023-07-20T06:22:03,42.805,6.029,-0.016,0.012,-0.005,103.0,100.0,101.0,13.4,1505.2,323.6,-0.8,1.8,2471.391,13.29,0.02,306.9
2023-07-20T06:25:03,42.805,6.029,-0.028,0.011,0.008,102.0,102.0,101.0,13.3,1505.2,323.6,-0.8,1.8,2471.395,13.29,0.03,291.4
2023-07-20T06:28:03,42.805,6.029,-0.009,-0.024,-0.018,102.0,102.0,101.0,13.4,1505.2,351.7,-0.7,1.8,2471.376,13.29,0.025,200.6
2023-07-20T06:31:03,42.805,6.029,-0.015,0.011,-0.003,102.0,101.0,100.0,13.3,1505.2,322.9,-0.8,1.8,2471.411,13.29,0.018,306.3
2023-07-20T06:34:03,42.805,6.029,-0.001,0.005,0.011,102.0,102.0,102.0,13.4,1505.2,324.0,-0.8,1.8,2471.403,13.29,0.005,348.7
2023-07-20T06:37:03,42.805,6.029,-0.037,0.007,-0.031,102.0,102.0,101.0,13.4,1505.2,325.5,-0.8,1.8,2471.363,13.29,0.037,280.7
2023-07-20T06:40:03,42.805,6.029,-0.002,-0.014,-0.041,102.0,103.0,101.0,13.4,1505.2,342.6,-0.8,1.8,2471.396,13.29,0.014,188.1
2023-07-20T06:43:03,42.805,6.029,0.006,-0.026,-0.059,102.0,103.0,101.0,13.4,1505.2,338.3,-0.8,1.8,2471.416,13.29,0.026,167.0
2023-07-20T06:46:03,42.805,6.029,-0.01,0.001,-0.028,102.0,102.0,104.0,13.4,1505.2,338.2,-0.8,1.8,2471.386,13.29,0.01,275.7
2023-07-20T06:49:03,42.805,6.029,-0.006,0.032,-0.001,103.0,102.0,101.0,13.3,1505.2,353.2,-0.7,1.8,2471.388,13.29,0.032,349.4
2023-07-20T06:52:03,42.805,6.029,-0.009,0.0,-0.039,102.0,102.0,101.0,13.4,1505.2,339.4,-0.8,1.8,2471.392,13.29,0.009,270.0
2023-07-20T06:55:03,42.805,6.029,-0.007,0.029,0.025,102.0,103.0,101.0,13.4,1505.2,333.4,-0.8,1.8,2471.405,13.29,0.029,346.4
2023-07-20T06:58:03,42.805,6.029,-0.005,0.003,-0.047,102.0,102.0,101.0,13.3,1505.2,328.8,-0.8,1.8,2471.391,13.29,0.005,301.0
2023-07-20T07:04:03,42.805,6.029,-0.005,-0.004,-0.034,102.0,103.0,101.0,13.4,1505.2,338.6,-0.8,1.8,2471.437,13.29,0.006,231.3
2023-07-20T07:07:03,42.805,6.029,0.007,0.009,0.009,102.0,102.0,100.0,13.3,1505.2,349.7,-0.8,1.8,2471.441,13.29,0.011,37.9
2023-07-20T07:10:03,42.805,6.029,-0.028,0.009,-0.039,103.0,102.0,101.0,13.4,1505.2,337.7,-0.8,1.9,2471.421,13.29,0.029,287.8
2023-07-20T07:13:03,42.805,6.029,-0.023,0.016,-0.041,101.0,103.0,102.0,13.4,1505.2,324.0,-0.8,1.8,2471.413,13.29,0.028,304.8
2023-07-20T07:16:03,42.805,6.029,0.01,0.012,0.001,102.0,103.0,101.0,13.3,1505.2,341.2,-0.7,1.8,2471.422,13.29,0.015,39.8
2023-07-20T07:19:03,42.805,6.029,-0.008,0.005,-0.032,102.0,102.0,101.0,13.4,1505.2,343.4,-0.8,1.8,2471.423,13.29,0.009,302.0
2023-07-20T07:22:03,42.805,6.029,0.011,0.002,-0.004,103.0,102.0,101.0,13.4,1505.2,336.1,-0.8,1.8,2471.382,13.29,0.011,79.7
2023-07-20T07:25:03,42.805,6.029,-0.042,0.007,-0.044,103.0,102.0,101.0,13.4,1505.2,331.3,-0.8,1.8,2471.414,13.29,0.042,279.5
2023-07-20T07:28:03,42.805,6.029,-0.003,0.0,-0.03,102.0,102.0,101.0,13.4,1505.2,344.4,-0.8,1.8,2471.385,13.29,0.003,270.0
2023-07-20T07:31:03,42.805,6.029,-0.025,0.012,-0.055,102.0,102.0,101.0,13.4,1505.2,347.1,-0.8,1.8,2471.399,13.29,0.027,295.6
2023-07-20T07:34:03,42.805,6.029,-0.013,0.005,-0.048,102.0,102.0,101.0,13.4,1505.2,335.6,-0.8,1.8,2471.397,13.29,0.013,291.0
2023-07-20T07:37:03,42.805,6.029,-0.008,0.025,-0.016,103.0,103.0,101.0,13.3,1505.2,332.5,-0.7,1.8,2471.43,13.29,0.026,342.3
2023-07-20T07:40:03,42.805,6.029,-0.021,0.022,-0.039,102.0,102.0,101.0,13.4,1505.2,332.1,-0.8,1.8,2471.43,13.29,0.03,316.3
2023-07-20T07:43:03,42.805,6.029,-0.028,0.018,-0.027,102.0,102.0,101.0,13.4,1505.2,321.3,-0.8,1.8,2471.405,13.29,0.033,302.7
2023-07-20T07:46:03,42.805,6.029,0.007,0.02,-0.011,103.0,102.0,100.0,13.4,1505.2,340.4,-0.7,1.8,2471.4,13.29,0.021,19.3
2023-07-20T07:49:03,42.805,6.029,-0.023,0.026,-0.02,102.0,102.0,101.0,13.4,1505.2,351.5,-0.7,1.8,2471.391,13.29,0.034,318.5
2023-07-20T07:52:03,42.805,6.029,-0.038,0.019,-0.048,102.0,101.0,101.0,13.4,1505.2,340.8,-0.8,1.8,2471.427,13.29,0.042,296.6
2023-07-20T07:55:03,42.805,6.029,0.009,0.01,-0.021,102.0,102.0,102.0,13.4,1505.2,351.2,-0.8,1.8,2471.43,13.29,0.013,42.0
2023-07-20T07:58:03,42.805,6.029,-0.011,0.002,-0.007,101.0,104.0,101.0,13.3,1505.2,328.5,-0.7,1.8,2471.434,13.29,0.011,280.3
2023-07-20T08:04:03,42.805,6.029,-0.01,0.008,-0.035,102.0,102.0,100.0,13.3,1505.2,349.3,-0.7,1.8,2471.491,13.29,0.012,308.7
2023-07-20T08:07:03,42.805,6.029,-0.003,0.006,-0.015,102.0,101.0,101.0,13.4,1505.2,330.1,-0.8,1.8,2471.464,13.29,0.006,333.4
2023-07-20T08:10:03,42.805,6.029,-0.019,0.0,-0.051,102.0,102.0,101.0,13.4,1505.2,337.7,-0.8,1.8,2471.484,13.29,0.019,270.0
2023-07-20T08:13:03,42.805,6.029,-0.011,0.016,-0.018,102.0,101.0,100.0,13.4,1505.2,342.2,-0.8,1.8,2471.453,13.29,0.019,325.5
2023-07-20T08:16:03,42.805,6.029,0.029,0.019,0.024,102.0,102.0,101.0,13.4,1505.2,349.5,-0.7,1.8,2471.463,13.29,0.034,56.8
2023-07-20T08:19:03,42.805,6.029,-0.033,-0.007,-0.057,100.0,102.0,101.0,13.3,1505.2,345.6,-0.7,1.8,2471.464,13.29,0.033,258.0
2023-07-20T08:22:03,42.805,6.029,-0.015,0.01,-0.065,102.0,103.0,101.0,13.4,1505.2,342.3,-0.7,1.8,2471.415,13.29,0.018,303.7
2023-07-20T08:25:03,42.805,6.029,-0.032,-0.003,-0.034,102.0,103.0,101.0,13.4,1505.2,331.8,-0.8,1.8,2471.451,13.29,0.032,264.6
2023-07-20T08:28:03,42.805,6.029,-0.017,0.012,-0.016,102.0,105.0,101.0,13.4,1505.2,342.3,-0.8,1.8,2471.413,13.29,0.02,305.2
2023-07-20T08:31:03,42.805,6.029,0.0,0.009,-0.012,103.0,102.0,101.0,13.4,1505.2,353.2,-0.8,1.8,2471.437,13.29,0.009,0.0
2023-07-20T08:34:03,42.805,6.029,-0.001,-0.001,-0.012,102.0,103.0,100.0,13.4,1505.2,345.7,-0.8,1.8,2471.442,13.29,0.001,225.0
2023-07-20T08:37:03,42.805,6.029,-0.005,0.006,-0.027,102.0,102.0,103.0,13.4,1505.2,338.0,-0.8,1.8,2471.421,13.29,0.007,320.2
2023-07-20T08:40:03,42.805,6.029,-0.03,0.008,0.0,102.0,102.0,102.0,13.4,1505.2,324.3,-0.8,1.8,2471.443,13.29,0.031,284.9
2023-07-20T08:43:03,42.805,6.029,-0.003,0.015,-0.018,101.0,104.0,101.0,13.3,1505.2,340.9,-0.8,1.8,2471.403,13.29,0.015,348.7
2023-07-20T08:46:03,42.805,6.029,-0.01,-0.007,-0.028,100.0,103.0,101.0,13.4,1505.2,332.5,-0.7,1.8,2471.418,13.29,0.012,235.0
2023-07-20T08:49:03,42.805,6.029,-0.023,-0.005,-0.056,101.0,102.0,101.0,13.4,1505.2,337.1,-0.8,1.8,2471.434,13.29,0.023,257.7
2023-07-20T08:52:03,42.805,6.029,-0.009,0.003,-0.023,102.0,102.0,101.0,13.4,1505.2,323.4,-0.8,1.8,2471.434,13.29,0.009,288.4
2023-07-20T08:55:03,42.805,6.029,-0.01,0.008,-0.033,102.0,101.0,100.0,13.4,1505.2,341.9,-0.8,1.8,2471.426,13.29,0.012,308.7
2023-07-20T08:58:03,42.805,6.029,-0.01,-0.022,-0.062,102.0,102.0,100.0,13.4,1505.2,349.7,-0.8,1.8,2471.421,13.29,0.024,204.4
2023-07-20T09:04:03,42.805,6.029,-0.018,-0.001,-0.04,102.0,102.0,101.0,13.4,1505.2,326.0,-0.8,1.8,2471.468,13.29,0.018,266.8
2023-07-20T09:07:03,42.805,6.029,-0.001,-0.004,-0.025,103.0,102.0,102.0,13.4,1505.2,331.6,-0.8,1.8,2471.477,13.29,0.004,194.0
2023-07-20T09:10:03,42.805,6.029,-0.012,0.005,-0.047,102.0,102.0,101.0,13.4,1505.2,333.4,-0.8,1.8,2471.469,13.29,0.013,292.6
2023-07-20T09:13:03,42.805,6.029,0.0,-0.034,-0.019,102.0,101.0,101.0,13.4,1505.2,353.0,-0.8,1.8,2471.46,13.29,0.034,180.0
2023-07-20T09:16:03,42.805,6.029,-0.016,0.009,-0.014,102.0,102.0,101.0,13.4,1505.2,327.5,-0.7,1.8,2471.459,13.29,0.018,299.4
2023-07-20T09:19:03,42.805,6.029,-0.015,-0.006,-0.05,102.0,102.0,101.0,13.3,1505.2,325.3,-0.7,1.8,2471.417,13.29,0.016,248.2
2023-07-20T09:22:03,42.805,6.029,-0.011,0.005,-0.028,102.0,101.0,100.0,13.3,1505.2,329.8,-0.8,1.8,2471.44,13.29,0.012,294.4
2023-07-20T09:25:03,42.805,6.029,-0.007,0.015,-0.014,102.0,102.0,101.0,13.4,1505.2,329.2,-0.8,1.8,2471.425,13.29,0.016,335.0
2023-07-20T09:28:03,42.805,6.029,-0.018,0.0,-0.041,103.0,101.0,100.0,13.4,1505.2,330.9,-0.8,1.8,2471.416,13.29,0.018,270.0
2023-07-20T09:31:03,42.805,6.029,0.0,-0.002,-0.022,102.0,103.0,101.0,13.3,1505.2,334.6,-0.7,1.8,2471.443,13.29,0.002,180.0
2023-07-20T09:34:03,42.805,6.029,-0.024,0.006,-0.009,101.0,103.0,100.0,13.4,1505.2,321.4,-0.8,1.8,2471.425,13.29,0.024,284.0
2023-07-20T09:37:03,42.805,6.029,0.009,-0.021,-0.011,102.0,102.0,101.0,13.4,1505.2,332.4,-0.8,1.8,2471.436,13.29,0.022,156.8
2023-07-20T09:40:03,42.805,6.029,0.004,-0.017,-0.062,103.0,102.0,100.0,13.4,1505.2,331.3,-0.8,1.8,2471.391,13.29,0.017,166.8
2023-07-20T09:43:03,42.805,6.029,0.009,0.002,-0.031,100.0,103.0,102.0,13.4,1505.2,326.0,-0.8,1.8,2471.441,13.29,0.009,77.5
2023-07-20T09:46:03,42.805,6.029,-0.042,0.007,-0.055,102.0,102.0,101.0,13.3,1505.2,332.5,-0.8,1.8,2471.41,13.29,0.042,279.5
2023-07-20T09:49:03,42.805,6.029,-0.026,0.012,-0.022,102.0,101.0,102.0,13.3,1505.2,345.1,-0.8,1.8,2471.408,13.29,0.028,294.8
2023-07-20T09:52:03,42.805,6.029,-0.021,-0.004,-0.02,102.0,103.0,101.0,13.4,1505.2,333.8,-0.8,1.9,2471.438,13.29,0.021,259.2
2023-07-20T09:55:03,42.805,6.029,0.019,-0.017,-0.026,105.0,102.0,101.0,13.4,1505.2,344.2,-0.8,1.9,2471.411,13.29,0.025,131.8
2023-07-20T09:58:03,42.805,6.029,-0.011,-0.016,-0.051,102.0,102.0,101.0,13.3,1505.2,323.9,-0.8,1.8,2471.428,13.29,0.019,214.5
2023-07-20T10:04:03,42.805,6.029,-0.016,0.003,-0.012,101.0,102.0,100.0,13.3,1505.2,349.8,-0.7,1.8,2471.446,13.29,0.016,280.6
2023-07-20T10:07:03,42.805,6.029,-0.014,-0.006,-0.024,102.0,102.0,101.0,13.3,1505.2,331.2,-0.8,1.8,2471.426,13.29,0.015,246.8
2023-07-20T10:10:03,42.805,6.029,-0.017,0.011,-0.041,102.0,102.0,101.0,13.4,1505.2,343.7,-0.8,1.8,2471.424,13.29,0.02,302.9
2023-07-20T10:13:03,42.805,6.029,-0.009,-0.006,-0.034,102.0,103.0,100.0,13.4,1505.2,334.3,-0.8,1.8,2471.439,13.29,0.01,236.3
2023-07-20T10:16:03,42.805,6.029,-0.033,0.007,-0.028,101.0,101.0,100.0,13.4,1505.2,330.8,-0.8,1.8,2471.438,13.29,0.033,282.0
2023-07-20T10:19:03,42.805,6.029,-0.001,-0.016,-0.033,101.0,102.0,101.0,13.3,1505.2,354.2,-0.8,1.8,2471.428,13.29,0.016,183.6
2023-07-20T10:22:03,42.805,6.029,-0.003,0.025,0.032,103.0,101.0,101.0,13.3,1505.2,344.7,-0.8,1.8,2471.411,13.29,0.025,353.2
2023-07-20T10:25:03,42.805,6.029,-0.006,-0.002,-0.029,101.0,102.0,101.0,13.4,1505.2,339.7,-0.7,1.8,2471.378,13.29,0.006,251.6
2023-07-20T10:28:03,42.805,6.029,0.001,0.002,-0.023,103.0,101.0,100.0,13.4,1505.2,343.0,-0.8,1.8,2471.404,13.29,0.002,26.6
2023-07-20T10:31:03,42.805,6.029,-0.026,0.001,-0.011,102.0,102.0,101.0,13.3,1505.2,334.2,-0.8,1.8,2471.418,13.29,0.026,272.2
2023-07-20T10:34:03,42.805,6.029,0.012,0.003,-0.036,103.0,103.0,101.0,13.4,1505.2,329.9,-0.8,1.8,2471.384,13.29,0.012,76.0
2023-07-20T10:37:03,42.805,6.029,-0.032,0.016,-0.062,102.0,101.0,101.0,13.3,1505.2,345.4,-0.8,1.8,2471.382,13.29,0.035,296.6
2023-07-20T10:40:03,42.805,6.029,-0.02,-0.017,-0.059,102.0,102.0,101.0,13.4,1505.2,353.5,-0.8,1.8,2471.378,13.29,0.026,229.6
2023-07-20T10:43:03,42.805,6.029,-0.006,0.002,-0.048,102.0,103.0,100.0,13.3,1505.2,337.4,-0.7,1.8,2471.373,13.29,0.006,288.4
2023-07-20T10:46:03,42.805,6.029,-0.016,0.01,-0.039,102.0,102.0,101.0,13.3,1505.2,350.5,-0.8,1.8,2471.376,13.29,0.018,302.0
2023-07-20T10:49:03,42.805,6.029,0.004,-0.001,-0.024,102.0,103.0,102.0,13.4,1505.2,330.2,-0.8,1.8,2471.368,13.29,0.004,104.0
2023-07-20T10:52:03,42.805,6.029,-0.002,0.0,-0.018,103.0,101.0,101.0,13.4,1505.2,327.8,-0.8,1.8,2471.367,13.29,0.002,270.0
2023-07-20T10:55:03,42.805,6.029,-0.017,0.0,-0.012,102.0,102.0,99.0,13.4,1505.2,328.3,-0.7,1.8,2471.333,13.29,0.017,270.0